Вернуться в каталог

PRAETORIAN SDA_619

АктивенВоенныеPO
NORAD 65582·PAYLOAD·🇺🇸 United States

Запущен Sep 10, 2025 с Vandenberg Space Force Base

Loading…

Ближайшие Пролёты (ближайшие 24 часа)

TLE

СвежийSource: Space-Track

Эпоха: Sep 14, 2026, 12:40 UTC

1 65582U 25203T   26257.52837759  .00000167  00000-0  14045-3 0  9997
2 65582  81.3018 288.1248 0007309 314.2594  45.7962 13.83730766 51686

Отслеживайте PRAETORIAN SDA_619 в реальном времени с AllMySat

Download on the App Store